This is the latest recevied weather packets stored in our database for station/object IZ3LCH-13. If no packets are shown the sender has not sent any weather packets the latest 1 day(s).
| Time | Temp. | Humidity | Pressure | Rain* | Wind** | Luminosity | Snow |
|---|---|---|---|---|---|---|---|
| 1777995303 | 17.22° C | 76% | 1012.4 hPa | 0 mm | 2.68 m/s, 6° | - | - |
| 1777995003 | 17.22° C | 76% | 1012.5 hPa | 0 mm | 2.68 m/s, 5° | - | - |
| 1777994703 | 17.22° C | 75% | 1012.4 hPa | 0 mm | 2.68 m/s, 4° | - | - |
| 1777994403 | 17.22° C | 75% | 1012.4 hPa | 0 mm | 2.68 m/s, 3° | - | - |
| 1777994103 | 17.22° C | 75% | 1012.3 hPa | 0 mm | 2.68 m/s, 5° | - | - |
| 1777993803 | 17.22° C | 75% | 1012.3 hPa | 0 mm | 3.13 m/s, 8° | - | - |
| 1777993503 | 17.22° C | 74% | 1012.4 hPa | 0 mm | 3.13 m/s, 9° | - | - |
| 1777993203 | 17.78° C | 74% | 1012.4 hPa | 0 mm | 3.13 m/s, 8° | - | - |
| 1777992903 | 17.22° C | 75% | 1012.4 hPa | 0 mm | 3.13 m/s, 6° | - | - |
| 1777992603 | 17.22° C | 75% | 1012.6 hPa | 0 mm | 3.13 m/s, 5° | - | - |
| 1777992303 | 17.22° C | 74% | 1012.5 hPa | 0 mm | 3.13 m/s, 8° | - | - |
| 1777992003 | 17.22° C | 74% | 1012.7 hPa | 0 mm | 3.13 m/s, 11° | - | - |
| 1777991703 | 17.22° C | 75% | 1012.6 hPa | 0 mm | 3.13 m/s, 6° | - | - |
| 1777991403 | 17.22° C | 75% | 1012.8 hPa | 0 mm | 3.13 m/s, 4° | - | - |
| 1777991103 | 16.67° C | 76% | 1012.6 hPa | 0 mm | 2.68 m/s, 7° | - | - |
| 1777990803 | 16.67° C | 76% | 1012.7 hPa | 0 mm | 2.68 m/s, 8° | - | - |
| 1777990503 | 16.67° C | 76% | 1012.7 hPa | 0 mm | 2.68 m/s, 14° | - | - |
| 1777990203 | 16.67° C | 76% | 1012.9 hPa | 0 mm | 2.68 m/s, 17° | - | - |
| 1777989903 | 16.67° C | 76% | 1012.7 hPa | 0 mm | 2.68 m/s, 17° | - | - |
| 1777989603 | 16.67° C | 76% | 1012.9 hPa | 0 mm | 2.68 m/s, 13° | - | - |
| 1777989303 | 16.67° C | 76% | 1012.9 hPa | 0 mm | 2.24 m/s, 8° | - | - |
| 1777989003 | 16.67° C | 75% | 1013 hPa | 0 mm | 1.79 m/s, 12° | - | - |
| 1777988703 | 16.67° C | 75% | 1013.1 hPa | 0 mm | 1.79 m/s, 14° | - | - |
| 1777988403 | 16.67° C | 75% | 1013.1 hPa | 0 mm | 1.79 m/s, 19° | - | - |
| 1777988103 | 16.67° C | 75% | 1012.9 hPa | 0 mm | 2.24 m/s, 24° | - | - |
* Rain latest hour (hover to see other rain measurements)
** Current wind speed in m/s (hover to see current wind gust speed)